Wetbulb
38.39 38.45 38.15 38.28 38.57 38.43 37.64 36.68 34.40 31.81 35.43 37.66 37.09 39.77 39.77 39.55 38.54 40.40 39.26 38.08 35.30 37.10 37.81 38.58 38.48 38.96 39.57 40.09 40.74 41.40 42.23 42.99 44.35 45.74 46.96 49.60 53.01 56.67
38.13 37.40 37.35 37.89 38.12 38.18 37.80 37.61 36.88 34.52 32.37 36.91 37.68 38.29 38.96 38.09 39.35 39.71 39.91 38.04 34.71 35.63 36.08 36.92 37.92 36.56 36.68 37.98 38.29 38.71 39.40 40.14 41.20 42.41 43.88 45.82 48.62 50.87
37.71 36.62 36.35 37.56 37.06 37.09 37.51 37.34 36.12 35.50 32.85 35.91 38.02 38.53 37.64 36.73 37.88 38.95 39.18 39.97 37.63 33.87 35.09 35.28 36.21 35.86 34.61 34.89 35.56 36.13 36.81 37.55 38.24 39.20 40.50 42.39 44.35 46.93
36.36 35.78 34.97 36.65 36.54 36.66 36.32 35.65 35.40 36.00 34.32 32.72 36.14 36.26 35.98 36.24 37.04 37.05 37.30 38.33 38.58 34.55 34.50 34.18 35.40 35.52 33.73 32.70 33.59 33.78 33.87 34.45 35.44 36.34 37.02 38.38 40.31 42.07
35.75 34.60 33.32 33.71 33.39 34.42 35.19 34.42 34.82 35.51 35.50 34.29 33.95 36.12 35.21 34.86 34.75 36.22 36.60 37.59 39.02 35.67 35.23 35.50 34.76 35.20 33.56 32.65 32.18 32.36 32.38 32.67 32.72 33.31 34.45 34.89 36.52 38.59
34.64 33.65 31.61 29.57 29.18 29.63 32.53 32.04 32.58 33.75 34.23 33.84 33.40 33.16 32.87 32.89 32.94 31.87 32.34 35.30 37.42 35.19 33.96 34.95 35.05 35.78 34.47 32.82 31.86 31.66 31.52 31.35 31.37 31.73 31.79 32.46 33.66 35.51
33.71 32.60 30.59 28.22 25.89 25.23 27.08 27.40 28.49 30.17 31.50 31.45 30.82 30.53 29.38 27.90 27.36 30.52 30.14 32.02 35.39 33.66 31.23 35.54 33.85 34.34 35.77 34.66 31.93 31.22 30.90 30.61 30.50 30.78 30.82 30.97 31.99 34.24
31.00 32.26 32.08 29.68 28.46 24.57 23.89 23.68 24.21 24.21 26.68 28.09 28.21 25.90 26.34 25.14 26.74 28.19 28.90 28.47 27.73 33.25 28.85 31.92 32.40 31.60 32.65 33.88 30.80 30.88 30.52 30.18 30.11 30.03 30.00 30.09 30.23 31.80
29.30 29.97 29.74 29.63 27.94 28.02 26.47 25.28 24.85 23.97 23.60 26.81 24.71 23.67 23.43 23.16 24.54 25.82 27.45 28.20 28.53 29.36 26.93 27.13 30.15 28.96 30.89 34.19 30.92 30.76 30.27 30.29 29.75 29.46 29.46 29.42 29.44 30.76
29.03 28.47 28.67 27.78 25.35 24.82 25.78 25.84 26.47 26.09 23.60 24.20 24.81 23.17 23.08 23.65 24.19 26.35 26.97 28.57 30.51 29.66 25.88 21.71 28.81 26.72 29.81 32.60 31.10 30.78 30.16 29.90 29.84 29.35 29.28 29.00 28.86 29.91
28.25 27.04 27.72 26.96 22.94 22.79 25.51 24.51 24.75 25.51 25.50 22.34 21.37 21.45 23.04 23.05 23.98 25.88 23.37 24.57 23.83 26.41 23.17 21.74 25.08 25.25 27.96 30.84 29.83 30.41 29.84 29.68 29.13 28.90 28.81 28.80 28.82 29.21
30.12 27.47 22.48 24.12 21.87 21.75 25.29 25.04 23.22 22.79 24.51 25.29 26.48 26.37 26.40 26.43 24.61 25.50 23.88 21.37 22.32 22.86 22.08 19.69 21.37 23.61 21.03 28.33 27.80 30.15 29.86 29.33 28.46 28.54 27.96 28.27 28.39 28.40
29.34 29.21 26.82 20.59 20.63 20.62 21.18 22.06 19.59 20.67 25.05 26.22 26.96 27.02 26.65 25.91 25.58 25.20 24.52 23.05 21.12 20.71 23.14 21.10 20.37 21.27 20.60 21.31 25.19 28.16 28.41 29.49 28.23 27.46 27.39 27.05 27.55 27.86
28.52 29.00 24.82 19.45 18.61 18.71 22.27 17.29 18.26 22.08 26.00 25.69 25.30 24.83 24.20 23.94 24.26 24.51 24.45 24.45 24.78 22.07 23.52 22.32 19.69 20.20 18.43 19.83 20.30 25.03 26.77 28.99 28.01 25.51 26.51 25.56 26.22 27.03
29.10 23.14 20.85 18.49 18.05 18.89 17.00 17.16 20.28 25.14 25.03 24.34 23.78 23.98 24.18 24.27 24.75 24.14 24.91 25.34 25.59 25.25 24.69 23.82 21.97 21.21 20.90 20.14 20.13 21.43 22.70 24.72 26.26 24.63 24.94 23.62 25.00 25.99
22.91 22.87 22.55 21.17 18.84 19.45 20.19 21.84 24.85 24.58 22.71 23.44 23.31 24.37 24.80 23.91 22.99 23.68 22.23 22.72 22.31 23.04 25.03 25.04 23.92 22.37 20.39 20.60 20.80 20.80 22.77 19.61 23.29 23.07 22.88 23.37 25.23 26.26
25.63 25.64 23.56 24.53 24.91 25.06 24.81 23.84 23.83 23.84 23.26 23.85 23.18 22.88 22.52 22.44 22.26 22.61 22.28 21.89 20.25 20.00 20.59 22.84 23.83 23.79 23.45 21.49 19.00 19.21 19.16 19.98 20.91 21.01 20.75 19.92 22.70 24.20
25.37 25.21 25.58 26.38 25.11 25.15 24.66 24.30 24.29 21.44 23.06 22.72 22.27 22.20 21.29 20.91 20.81 20.67 21.83 20.46 19.11 19.41 19.59 20.35 20.98 20.04 20.23 21.48 20.52 18.04 18.06 18.12 19.39 20.35 20.06 17.87 18.05 21.21
23.46 26.08 26.22 26.36 26.02 25.81 25.22 24.64 23.50 24.19 22.46 20.89 21.32 21.32 21.40 20.89 19.96 20.18 20.33 20.13 18.86 19.14 19.49 20.02 19.17 18.20 14.22 12.14 17.30 20.39 16.66 17.66 18.40 17.04 17.79 17.77 15.51 17.68
24.72 24.95 26.00 27.19 26.74 25.56 25.44 24.98 24.45 24.11 22.96 22.08 21.97 21.79 21.43 19.94 19.35 19.11 19.34 18.45 18.03 17.92 18.05 19.20 19.10 17.50 13.87 12.56 12.72 16.96 20.86 18.23 16.88 15.60 15.93 17.21 18.35 19.99
26.34 25.81 26.95 27.07 27.01 26.98 26.09 25.08 24.67 23.86 23.48 23.07 22.65 21.36 21.03 20.38 19.65 19.74 19.45 18.22 17.66 17.60 16.38 16.76 18.76 19.29 19.29 19.13 14.62 15.28 18.54 20.16 19.40 16.46 15.92 14.78 14.14 15.30
28.88 28.63 28.65 28.37 27.20 26.87 26.84 25.87 23.87 23.62 22.20 21.56 21.11 21.69 22.22 22.01 20.53 19.78 19.06 18.15 17.56 17.48 17.16 18.64 19.53 18.86 17.25 14.62 12.99 13.20 15.10 17.40 19.05 19.13 19.11 18.16 15.01 10.22
29.24 29.82 29.83 29.81 28.73 27.58 26.16 25.54 24.19 23.31 23.58 22.99 22.69 22.33 22.09 20.37 20.62 19.90 18.82 18.25 18.04 17.08 16.74 16.15 16.91 17.32 15.17 14.53 13.32 13.44 12.87 13.76 14.82 14.38 16.63 18.24 18.24 18.36
MSLP
1023.28 1023.05 1022.91 1022.95 1022.90 1022.80 1022.84 1022.68 1022.19 1021.02 1019.60 1019.91 1019.98 1020.38 1020.25 1019.98 1019.99 1019.48 1020.07 1020.46 1020.51 1019.93 1019.38 1018.80 1018.53 1018.22 1017.61 1016.89 1016.17 1015.46 1014.71 1013.89 1013.09 1012.17 1011.34 1010.42 1009.64 1008.72
1023.55 1023.58 1023.39 1023.18 1023.02 1023.02 1022.93 1022.75 1022.51 1022.32 1021.42 1020.93 1020.51 1020.77 1020.63 1020.49 1020.06 1019.85 1019.82 1020.05 1020.46 1020.05 1019.81 1019.34 1019.00 1018.76 1018.28 1017.56 1017.09 1016.35 1015.57 1014.83 1014.00 1013.12 1012.13 1011.12 1010.06 1009.46
1023.93 1023.96 1023.83 1023.60 1023.39 1023.35 1023.20 1023.00 1022.89 1022.76 1022.19 1021.45 1020.92 1020.90 1020.88 1020.92 1020.44 1020.06 1019.67 1019.36 1019.32 1020.08 1019.87 1019.64 1019.36 1019.07 1018.75 1018.25 1017.54 1017.01 1016.37 1015.74 1014.89 1014.13 1013.17 1011.95 1010.87 1010.04
1024.34 1024.36 1024.33 1023.97 1023.87 1023.83 1023.62 1023.46 1023.32 1022.90 1022.68 1021.95 1021.34 1021.20 1021.32 1021.35 1020.76 1020.20 1019.69 1019.37 1019.41 1019.99 1019.82 1019.83 1019.70 1019.39 1019.00 1018.85 1018.34 1017.80 1017.15 1016.44 1015.62 1014.96 1013.94 1012.97 1011.93 1011.10
1024.95 1025.03 1025.16 1025.09 1024.89 1024.63 1024.16 1024.02 1023.70 1023.05 1022.73 1022.26 1021.81 1021.66 1021.87 1021.93 1021.23 1020.59 1020.00 1019.59 1019.46 1019.88 1019.85 1019.58 1019.50 1019.31 1019.12 1018.99 1018.63 1018.12 1017.44 1016.96 1016.15 1015.54 1014.72 1013.86 1013.00 1011.98
1025.62 1025.87 1026.15 1026.42 1026.45 1026.12 1025.15 1025.03 1024.55 1023.60 1023.06 1022.65 1022.45 1022.34 1022.50 1022.65 1022.19 1021.44 1020.64 1020.15 1019.59 1020.20 1020.17 1019.58 1019.54 1019.07 1018.82 1018.70 1018.63 1018.36 1018.00 1017.33 1016.67 1016.04 1015.34 1014.69 1013.93 1012.96
1026.00 1026.18 1027.00 1027.43 1027.77 1027.72 1027.02 1026.71 1026.10 1025.10 1024.35 1023.75 1023.45 1023.43 1023.47 1023.58 1023.18 1022.45 1021.66 1020.95 1019.96 1020.59 1020.63 1019.27 1019.55 1019.05 1018.54 1018.41 1018.90 1018.75 1018.37 1017.95 1017.47 1016.63 1015.89 1015.13 1014.58 1013.71
1026.61 1026.52 1026.66 1027.35 1027.37 1027.91 1027.97 1028.02 1027.86 1027.30 1026.40 1025.58 1025.06 1025.18 1025.11 1025.28 1024.61 1023.50 1022.58 1021.70 1020.90 1021.12 1021.29 1019.93 1020.22 1019.77 1019.43 1019.00 1019.32 1019.02 1018.75 1018.35 1017.81 1017.23 1016.51 1015.80 1015.22 1014.57
1027.47 1027.35 1027.38 1027.66 1027.93 1027.67 1027.61 1027.61 1027.89 1028.10 1028.12 1027.11 1026.83 1027.00 1026.80 1026.79 1025.96 1024.60 1023.57 1022.70 1022.04 1022.26 1022.29 1021.07 1020.99 1020.49 1020.30 1019.04 1019.49 1019.38 1019.05 1018.55 1018.00 1017.49 1017.04 1016.42 1015.82 1014.56
1027.83 1027.98 1027.93 1028.02 1028.48 1028.42 1028.04 1027.85 1027.83 1027.96 1028.42 1028.07 1027.85 1028.16 1028.11 1027.75 1027.04 1025.56 1024.50 1023.44 1022.79 1022.88 1023.43 1022.47 1021.61 1021.12 1020.59 1019.73 1019.68 1019.54 1019.29 1018.75 1018.15 1017.77 1017.26 1016.63 1016.28 1015.17
1028.09 1028.37 1028.19 1028.25 1028.71 1028.65 1028.07 1027.98 1027.98 1028.10 1028.23 1028.48 1028.48 1028.34 1027.98 1027.75 1027.39 1026.11 1025.40 1024.30 1023.68 1023.43 1024.67 1024.13 1022.69 1021.61 1020.73 1019.80 1020.18 1019.64 1019.39 1019.03 1018.64 1018.15 1017.57 1017.09 1016.22 1015.30
1027.09 1027.88 1028.72 1028.53 1028.81 1028.76 1028.17 1027.96 1028.06 1028.33 1028.10 1027.85 1027.64 1027.48 1027.31 1027.06 1027.14 1026.81 1026.39 1025.65 1025.00 1024.30 1025.28 1025.03 1023.95 1022.97 1021.39 1020.40 1020.59 1019.84 1019.43 1019.04 1018.80 1018.27 1017.75 1017.03 1016.25 1015.52
1026.59 1026.99 1027.88 1028.98 1029.00 1028.99 1028.81 1028.57 1028.98 1028.95 1027.85 1027.42 1027.16 1027.13 1027.14 1027.14 1027.06 1027.07 1026.94 1026.52 1026.04 1025.77 1025.86 1025.82 1024.97 1024.05 1023.39 1022.03 1020.87 1020.13 1019.88 1019.08 1018.92 1018.62 1018.14 1017.65 1016.91 1016.17
1026.77 1027.37 1028.33 1029.10 1029.27 1029.28 1028.78 1029.37 1029.18 1028.55 1027.62 1027.37 1027.17 1027.07 1027.17 1027.18 1027.20 1027.12 1026.87 1026.55 1026.31 1026.45 1025.95 1025.90 1025.31 1024.57 1023.85 1022.60 1021.25 1020.51 1020.04 1019.27 1019.01 1018.95 1018.45 1018.17 1017.54 1016.82
1026.99 1028.29 1028.70 1029.18 1029.28 1029.39 1029.39 1029.28 1028.91 1027.98 1027.76 1027.44 1027.25 1027.17 1027.29 1027.25 1026.96 1026.78 1026.47 1026.08 1025.59 1025.48 1025.35 1025.30 1025.09 1024.58 1023.95 1022.95 1021.92 1021.12 1019.99 1019.49 1019.12 1019.09 1018.63 1018.29 1017.38 1016.64
1027.99 1028.28 1028.52 1028.72 1028.93 1028.81 1028.97 1028.73 1028.08 1028.11 1028.18 1027.61 1027.36 1027.24 1027.08 1026.99 1026.77 1026.66 1026.43 1026.06 1025.55 1025.06 1024.89 1024.74 1024.55 1024.28 1023.61 1023.07 1022.50 1021.45 1020.80 1020.42 1019.72 1019.54 1019.00 1018.36 1017.53 1016.91
1027.37 1027.64 1028.04 1027.85 1027.59 1027.59 1027.57 1027.67 1027.73 1027.71 1027.64 1027.49 1027.35 1027.14 1027.06 1026.98 1026.77 1026.76 1026.34 1025.99 1025.56 1025.08 1024.71 1024.49 1024.31 1023.95 1023.47 1023.06 1022.45 1022.00 1021.58 1020.89 1020.58 1019.80 1019.09 1018.24 1017.53 1016.98
1026.92 1026.75 1026.65 1026.59 1026.61 1026.60 1026.63 1026.68 1026.91 1027.41 1027.39 1027.41 1027.33 1027.19 1027.09 1027.00 1026.85 1026.85 1026.34 1026.00 1025.61 1025.19 1024.80 1024.58 1024.27 1023.57 1023.05 1022.65 1022.94 1022.50 1022.09 1021.43 1020.82 1020.05 1019.50 1018.52 1017.58 1017.25
1026.40 1025.93 1025.82 1025.77 1025.81 1025.94 1026.04 1026.19 1026.38 1026.69 1027.27 1027.54 1027.25 1027.10 1027.05 1026.96 1026.95 1026.51 1026.17 1025.84 1025.49 1025.17 1024.79 1024.54 1024.20 1023.55 1022.96 1022.69 1023.00 1023.13 1022.33 1021.50 1020.65 1020.25 1019.84 1019.07 1018.31 1017.42
1025.54 1025.31 1025.09 1025.06 1025.16 1025.38 1025.57 1025.73 1025.95 1026.28 1026.64 1026.82 1026.74 1026.73 1026.74 1026.79 1026.57 1026.24 1025.95 1025.75 1025.41 1025.07 1024.61 1024.19 1023.74 1023.61 1023.57 1023.33 1022.76 1022.47 1021.94 1021.16 1020.86 1020.28 1019.60 1019.13 1018.46 1017.51
1024.28 1024.42 1024.43 1024.44 1024.54 1024.76 1024.99 1025.31 1025.53 1025.74 1025.94 1026.11 1026.17 1026.31 1026.35 1026.24 1025.98 1025.78 1025.52 1025.37 1025.16 1024.68 1024.07 1023.74 1023.61 1023.80 1023.41 1022.91 1022.27 1021.62 1021.25 1021.18 1020.77 1020.34 1019.67 1018.78 1017.79 1016.91
1022.86 1022.98 1023.23 1023.50 1023.76 1024.02 1024.32 1024.60 1025.02 1025.27 1025.47 1025.67 1025.75 1025.72 1025.64 1025.56 1025.37 1025.27 1025.14 1024.93 1024.65 1024.29 1023.90 1023.59 1023.25 1023.00 1022.69 1022.27 1021.67 1021.21 1020.80 1020.46 1020.35 1019.81 1019.37 1018.68 1018.01 1016.94
1021.84 1021.89 1022.08 1022.41 1022.80 1023.14 1023.57 1023.93 1024.28 1024.53 1024.67 1024.78 1024.87 1024.93 1025.02 1025.02 1024.99 1024.90 1024.78 1024.50 1024.11 1023.72 1023.49 1023.10 1022.84 1022.56 1022.29 1022.06 1021.58 1020.98 1020.49 1020.08 1019.58 1019.14 1018.62 1018.39 1017.93 1017.23
Wind_Speed
7 7 5 4 4 5 6 5 5 6 7 8 7 11 9 9 13 11 9 11 16 17 19 21 24 25 26 27 28 28 28 29 29 27 26 24 21 15
6 7 7 5 6 5 5 5 5 5 5 8 7 9 10 10 10 10 7 5 17 17 18 18 20 24 25 26 27 28 28 29 29 29 28 26 25 21
6 7 7 7 5 6 5 5 5 5 6 7 6 8 10 11 10 9 8 6 8 17 15 17 18 20 24 25 27 28 29 28 29 29 29 29 28 27
7 8 8 6 8 7 6 7 6 5 5 8 7 7 10 12 10 10 9 8 6 15 11 13 14 16 21 25 25 26 28 28 29 29 30 30 29 29
8 8 9 9 9 8 7 7 7 6 5 5 6 7 8 10 10 10 10 10 7 16 14 11 10 10 16 21 26 26 27 28 29 29 30 30 29 29
7 9 10 10 10 10 9 10 9 8 7 7 7 7 9 11 10 10 10 9 5 10 14 7 13 7 11 19 24 26 26 28 28 28 29 29 28 27
6 7 9 9 10 11 8 10 11 9 8 8 8 8 9 10 12 10 9 10 8 9 11 7 9 9 8 13 18 25 26 26 27 27 28 29 28 26
5 6 7 9 7 8 9 8 10 10 10 9 8 9 11 11 10 11 10 10 9 10 11 7 10 10 9 8 19 23 24 26 26 27 27 28 29 24
5 4 4 5 8 7 4 2 6 8 7 8 8 8 9 11 12 13 12 11 9 9 11 6 10 10 10 6 20 21 24 25 25 26 26 28 29 25
4 3 3 5 7 5 4 4 4 6 6 6 7 6 6 9 11 12 12 11 8 7 12 6 9 11 9 8 21 20 21 24 24 26 26 27 27 25
3 3 2 4 6 7 3 3 3 4 2 1 2 3 7 5 10 9 9 9 9 6 10 8 10 11 9 5 11 21 20 21 25 23 25 26 27 24
6 8 5 4 5 6 4 3 3 5 5 5 0 1 5 5 7 8 8 8 8 6 10 9 10 11 7 6 11 11 11 18 23 22 25 26 27 10
3 4 7 4 3 4 6 5 4 6 5 4 3 3 4 5 6 7 7 7 7 6 9 7 9 9 7 11 10 9 11 10 10 12 19 24 26 21
3 2 6 4 1 2 3 4 5 7 3 3 3 3 4 5 5 5 5 6 3 5 6 6 8 8 9 11 12 10 11 9 8 11 10 16 19 20
3 7 8 4 3 6 2 3 7 2 3 3 3 3 3 4 5 5 6 8 7 4 4 4 7 9 9 9 11 12 13 10 8 11 11 12 11 11
6 4 4 3 3 2 4 7 3 2 3 3 3 3 3 4 4 5 6 6 7 6 7 6 9 10 9 9 10 11 10 9 11 11 11 11 10 9
8 5 6 6 5 5 4 4 4 4 5 3 4 4 4 4 4 6 5 7 7 8 8 8 10 11 9 10 9 9 11 10 11 12 12 12 10 11
7 7 6 6 5 5 4 4 4 4 5 3 4 4 4 5 5 7 6 7 8 8 9 9 10 9 9 8 4 10 10 11 11 11 12 13 12 11
7 7 7 6 5 6 5 5 5 4 3 4 6 5 5 5 6 7 7 8 8 9 9 8 9 10 11 10 9 15 12 11 10 10 11 11 13 13
8 8 8 7 7 6 6 6 6 5 6 6 6 5 5 6 7 8 8 9 9 10 10 9 9 9 9 11 12 10 19 10 10 11 11 11 12 22
10 10 8 8 7 7 6 6 6 6 6 5 5 5 6 7 8 8 9 10 10 10 11 10 9 10 9 10 9 9 8 17 15 12 13 13 13 13
8 9 8 8 8 8 7 6 6 7 7 7 8 8 7 7 8 8 8 10 10 9 10 9 9 9 9 10 11 13 9 9 14 19 22 19 11 14
10 10 8 7 7 7 7 7 7 7 7 7 7 7 7 7 8 8 9 10 10 9 10 10 9 9 9 11 13 11 15 12 10 11 9 18 23 24
Wind_Direction
50 39 37 43 38 28 22 16 5 355 340 19 360 23 359 355 33 355 39 17 25 21 18 20 23 20 18 18 17 16 14 12 10 5 358 352 343 312
54 44 33 18 35 29 13 16 14 349 331 5 1 17 7 354 19 355 45 71 46 28 21 18 18 22 19 20 19 17 17 14 12 10 6 3 4 357
57 45 38 28 33 19 15 13 13 7 345 346 8 18 11 2 0 358 8 13 52 32 15 20 15 27 24 19 20 19 17 15 14 12 10 10 10 7
50 47 32 21 19 31 15 11 14 351 352 339 8 11 20 5 356 360 8 0 21 33 12 33 17 19 28 24 20 19 16 15 15 13 12 10 11 11
48 48 36 23 25 6 20 11 2 347 4 341 6 12 18 11 358 3 12 351 20 29 359 48 15 8 36 30 23 20 18 15 14 14 12 11 8 10
64 52 43 37 22 9 13 10 1 349 3 356 18 9 20 11 3 357 4 351 22 25 353 62 4 352 50 32 23 20 16 15 14 12 12 10 6 7
72 80 57 54 47 35 14 12 7 358 8 2 14 7 13 7 2 349 360 346 359 32 357 351 6 354 356 34 17 15 14 13 12 12 11 8 5 360
62 44 71 45 62 74 42 38 34 13 11 3 8 8 6 4 348 347 355 349 353 36 354 340 9 360 353 30 20 10 7 10 12 9 9 8 1 359
55 42 48 57 30 10 43 134 87 49 14 339 9 14 357 355 345 343 351 342 350 29 357 339 356 356 348 358 25 5 4 7 5 8 7 7 359 353
92 63 60 54 40 8 17 27 24 30 25 8 19 7 356 352 346 329 347 331 350 63 20 332 345 346 334 316 19 358 5 6 360 4 2 6 1 350
130 65 24 65 38 10 358 16 11 46 61 122 259 288 309 347 355 340 358 348 351 12 27 332 350 338 322 348 357 350 5 5 354 4 357 1 358 358
171 142 93 50 42 16 345 347 9 11 356 338 44 275 334 13 20 357 357 349 349 331 34 343 348 348 334 355 332 339 357 355 352 4 353 0 353 355
179 183 117 89 35 16 337 33 20 314 309 294 325 9 1 4 9 358 7 345 347 341 12 347 334 341 335 320 329 341 342 341 345 1 351 355 348 354
186 146 100 131 118 9 322 8 324 285 325 331 336 357 349 360 351 348 335 329 312 290 326 343 326 337 326 318 326 335 329 346 340 353 346 347 339 345
182 82 119 163 213 208 190 300 283 326 317 311 331 346 344 336 313 349 338 338 325 224 337 331 328 331 319 318 324 325 324 341 356 342 343 339 332 337
139 157 184 244 257 285 231 219 261 309 315 311 319 325 319 331 343 347 339 337 328 339 343 342 332 329 322 325 320 319 338 330 338 336 336 327 324 334
178 174 207 214 221 218 224 207 253 238 240 281 294 309 317 328 337 331 327 329 328 332 330 337 334 321 316 318 324 329 334 323 337 324 330 321 330 329
196 221 226 224 240 251 249 248 234 197 254 282 281 291 307 318 327 313 321 320 320 323 321 335 322 318 318 321 346 330 325 321 318 323 327 320 322 328
226 228 233 240 237 241 248 247 254 247 113 260 268 275 281 294 301 302 308 311 314 314 318 317 307 312 319 314 328 325 312 308 319 323 320 320 320 317
232 238 240 231 235 236 241 239 240 230 219 233 252 267 275 283 289 295 305 309 309 311 306 299 304 327 323 312 305 299 296 318 321 311 316 313 299 303
212 222 233 241 238 234 232 236 241 241 243 250 257 274 279 274 278 285 294 295 295 297 303 308 316 317 289 289 287 296 311 308 313 316 308 302 309 315
230 224 220 219 221 229 230 227 229 229 231 230 238 243 255 273 287 295 299 301 300 297 297 299 305 302 299 296 297 302 304 310 309 305 306 305 320 313
228 229 224 215 216 217 221 230 229 237 239 241 250 263 271 280 289 294 294 293 289 295 297 297 297 298 302 302 301 300 302 307 315 305 302 323 313 316